(43461) = 2000 YL128

Discovered at Haleakala on 2000-12-29 by NEAT.

Orbit

Orbit type: Main Belt

Note: WebGL enabled browser required.

epoch2024-03-31.0
epoch JD2460400.5
perihelion date2024-06-23.06069
perihelion JD2460484.56069
argument of perihelion (°)353.68430
ascending node (°)83.93334
inclination (°)7.06621
eccentricity0.0220724
perihelion distance (AU)2.7874167
Tisserand w.r.t. Jupiter3.3
ΔV w.r.t. Earth (km/sec)10.6
semimajor axis (AU)2.8503302
mean anomaly (°)342.78314
mean daily motion (°/day)0.20481470
aphelion distance (AU)2.913
period (years)4.81
P-vector [x]0.21360372
P-vector [y]0.90160390
P-vector [z]0.37614341
Q-vector [x]-0.96923140
Q-vector [y]0.14737184
Q-vector [z]0.19715994
absolute magnitude14.81
phase slope0.15
uncertainty0
referenceMPEC 2024-C115
observations used1370
oppositions20
arc length (days)9328
first opposition used1998
last opposition used2024
residual rms (arc-secs)0.69
perturbers coarse indicatorM-v
perturbers precise indicator003Ek
first observation date used1998-07-01.0
last observation date used2024-01-14.0
computer nameMPCLINUX
JD of orbit computation2456612.473741
perihelion JD uncertainty (days)6.7434E-04
argument of perihelion uncertainty (°)1.4391E-04
ascending node uncertainty (°)4.1849E-05
inclination uncertainty (°)5.2718E-06
eccentricity uncertainty 4.9961E-08
perihelion distance uncertainty (AU)1.5507E-07
Minimum Orbit Intersection Distances (in AU)
for orbit epoch: 2460200.5, reference: E2024-CB5
Mercury2.44756
Venus2.06542
Earth1.80016
Mars1.16502
Jupiter2.15362
Saturn6.26756
Uranus15.6206
Neptune27.0357

Observations

1393 total observations over interval: 1998 07 01.24167 – 2024 01 14.109945
These data are available for download (format description).

Date (UT) J2000 RA J2000 Dec Magn Location Ref
1998 07 01.24167 19 55 32.88 -25 32 54.3 18.7   809 – European Southern Observatory, La Silla MPS 26769
1998 07 01.25486 19 55 32.16 -25 32 58.2   809 – European Southern Observatory, La Silla MPS 26769
1998 07 01.26806 19 55 31.56 -25 33 01.5   809 – European Southern Observatory, La Silla MPS 26769
1999 10 09.25046 02 05 43.28 +02 51 29.2 18.8   704 – Lincoln Laboratory ETS, New Mexico MPS 26769
1999 10 09.26593 02 05 42.47 +02 51 24.4 19.5   704 – Lincoln Laboratory ETS, New Mexico MPS 26769
1999 10 09.28149 02 05 41.81 +02 51 21.0 18.8   704 – Lincoln Laboratory ETS, New Mexico MPS 26769
1999 10 09.29694 02 05 41.12 +02 51 16.7 18.7   704 – Lincoln Laboratory ETS, New Mexico MPS 26769
1999 10 09.31238 02 05 40.36 +02 51 13.0 18.3   704 – Lincoln Laboratory ETS, New Mexico MPS 26769
2000 11 20.46317 08 59 45.76 +21 07 01.1 19.8   704 – Lincoln Laboratory ETS, New Mexico MPS 26769
2000 11 20.49286 08 59 46.65 +21 07 03.7 19.9   704 – Lincoln Laboratory ETS, New Mexico MPS 26769
2000 11 20.50760 08 59 47.13 +21 07 03.5 19.8   704 – Lincoln Laboratory ETS, New Mexico MPS 26769
2000 12 29.45548 09 00 02.22 +23 17 51.7 19.1   608 – Haleakala-AMOS MPS 25526
2000 12 29.46543 09 00 01.91 +23 17 55.0 19.0   608 – Haleakala-AMOS MPS 25526
2000 12 29.47529 09 00 01.58 +23 17 58.3 18.9   608 – Haleakala-AMOS MPS 25526
2001 01 04.37519 08 56 35.93 +23 51 05.3 18.7   704 – Lincoln Laboratory ETS, New Mexico MPS 25526
2001 01 04.39037 08 56 35.27 +23 51 10.6 18.9   704 – Lincoln Laboratory ETS, New Mexico MPS 25526
2001 01 04.40551 08 56 34.69 +23 51 16.6 19.1   704 – Lincoln Laboratory ETS, New Mexico MPS 25526
2001 01 04.42066 08 56 34.08 +23 51 21.8 19.3   704 – Lincoln Laboratory ETS, New Mexico MPS 25526
2001 01 04.43583 08 56 33.47 +23 51 26.0 19.1   704 – Lincoln Laboratory ETS, New Mexico MPS 25526
2001 01 19.33006 08 44 49.24 +25 18 09.3 18.4   704 – Lincoln Laboratory ETS, New Mexico MPS 26769
2001 01 19.34622 08 44 48.37 +25 18 14.4 18.8   704 – Lincoln Laboratory ETS, New Mexico MPS 26769
2001 01 19.36160 08 44 47.54 +25 18 19.6 18.7   704 – Lincoln Laboratory ETS, New Mexico MPS 26769
2001 01 19.37699 08 44 46.67 +25 18 24.8 19.0   704 – Lincoln Laboratory ETS, New Mexico MPS 26769
2001 01 19.39239 08 44 45.77 +25 18 29.8 18.8   704 – Lincoln Laboratory ETS, New Mexico MPS 26769
2001 02 03.26439 08 31 01.01 +26 33 24.2 18.3   704 – Lincoln Laboratory ETS, New Mexico MPS 26769
2001 02 03.27932 08 31 00.19 +26 33 28.4 18.5   704 – Lincoln Laboratory ETS, New Mexico MPS 26769
2001 02 03.30860 08 30 58.49 +26 33 34.8 17.7   704 – Lincoln Laboratory ETS, New Mexico MPS 26769
2001 02 17.23354 08 19 32.98 +27 19 25.7 18.3   704 – Lincoln Laboratory ETS, New Mexico MPS 26769
2001 02 17.24747 08 19 32.36 +27 19 27.5 19.1   704 – Lincoln Laboratory ETS, New Mexico MPS 26769
2001 02 17.26146 08 19 31.77 +27 19 29.4 19.2   704 – Lincoln Laboratory ETS, New Mexico MPS 26769
2001 02 17.27531 08 19 31.17 +27 19 31.4 19.1   704 – Lincoln Laboratory ETS, New Mexico MPS 26769
2001 02 17.28923 08 19 30.49 +27 19 33.0 19.3   704 – Lincoln Laboratory ETS, New Mexico MPS 26769
2001 02 21.26477 08 16 53.54 +27 27 33.4 19.3   704 – Lincoln Laboratory ETS, New Mexico MPS 26769
2001 02 21.27882 08 16 52.99 +27 27 34.8 19.2   704 – Lincoln Laboratory ETS, New Mexico MPS 26769
2001 02 21.29313 08 16 52.42 +27 27 37.1 18.3   704 – Lincoln Laboratory ETS, New Mexico MPS 26769
2001 02 21.30880 08 16 51.87 +27 27 38.3 18.3   704 – Lincoln Laboratory ETS, New Mexico MPS 26769
2002 04 05.33805 14 58 48.64 -08 47 25.8 18.8 R 699 – Lowell Observatory-LONEOS MPS 54922
2002 04 05.35490 14 58 48.02 -08 47 22.3   699 – Lowell Observatory-LONEOS MPS 54922
2002 04 05.37146 14 58 47.48 -08 47 19.9   699 – Lowell Observatory-LONEOS MPS 54922
2002 04 05.38798 14 58 46.92 -08 47 17.6   699 – Lowell Observatory-LONEOS MPS 54922
2002 04 09.36420 14 56 24.86 -08 36 14.6 19.5   704 – Lincoln Laboratory ETS, New Mexico MPS 54922
2002 04 09.37585 14 56 24.32 -08 36 12.3 20.1   704 – Lincoln Laboratory ETS, New Mexico MPS 54922
2002 04 09.38757 14 56 23.85 -08 36 12.2 19.7   704 – Lincoln Laboratory ETS, New Mexico MPS 54922
2002 04 09.39922 14 56 23.34 -08 36 10.1 19.2   704 – Lincoln Laboratory ETS, New Mexico MPS 54922
2002 04 09.41088 14 56 22.93 -08 36 07.2 19.2   704 – Lincoln Laboratory ETS, New Mexico MPS 54922
2002 04 16.32849 14 51 35.19 -08 16 11.9 18.8   704 – Lincoln Laboratory ETS, New Mexico MPS 54922
2002 04 16.34267 14 51 34.53 -08 16 09.4 19.1   704 – Lincoln Laboratory ETS, New Mexico MPS 54922
2002 04 16.35692 14 51 33.88 -08 16 06.9 19.2   704 – Lincoln Laboratory ETS, New Mexico MPS 54922
2002 04 16.37108 14 51 33.21 -08 16 04.2 19.5   704 – Lincoln Laboratory ETS, New Mexico MPS 54922
2002 04 16.38525 14 51 32.53 -08 16 02.9 19.1   704 – Lincoln Laboratory ETS, New Mexico MPS 54922
2002 04 30.27368 14 40 13.56 -07 37 46.5 18.0   644 – Palomar Mountain/NEAT MPS 54580
2002 04 30.33709 14 40 10.22 -07 37 36.7 19.1   644 – Palomar Mountain/NEAT MPS 54580
2002 04 30.40677 14 40 06.56 -07 37 26.1 18.2   644 – Palomar Mountain/NEAT MPS 54580
2002 05 07.36363 14 34 10.30 -07 21 43.2 18.6 R 699 – Lowell Observatory-LONEOS MPS 54580
2002 05 07.38010 14 34 09.42 -07 21 42.0   699 – Lowell Observatory-LONEOS MPS 54580
2002 05 07.39667 14 34 08.54 -07 21 37.2   699 – Lowell Observatory-LONEOS MPS 54580
2002 05 07.41230 14 34 07.74 -07 21 36.7 18.2   644 – Palomar Mountain/NEAT MPS 54580
2002 05 07.41319 14 34 07.70 -07 21 36.8   699 – Lowell Observatory-LONEOS MPS 54580
2002 05 07.43444 14 34 06.60 -07 21 34.1 18.5   644 – Palomar Mountain/NEAT MPS 54580
2002 05 07.45571 14 34 05.50 -07 21 31.4 18.7   644 – Palomar Mountain/NEAT MPS 54580
2002 05 08.26963 14 33 24.59 -07 19 55.1 18.7   704 – Lincoln Laboratory ETS, New Mexico MPS 54580
2002 05 08.28154 14 33 23.94 -07 19 53.9 18.4   704 – Lincoln Laboratory ETS, New Mexico MPS 54580
2002 05 08.29378 14 33 23.32 -07 19 52.3 18.4   704 – Lincoln Laboratory ETS, New Mexico MPS 54580
2002 05 08.30575 14 33 22.69 -07 19 50.7 18.5   704 – Lincoln Laboratory ETS, New Mexico MPS 54580
2002 05 08.31769 14 33 22.04 -07 19 49.7 18.5   704 – Lincoln Laboratory ETS, New Mexico MPS 54580
2002 05 18.25653 14 25 26.26 -07 05 13.4 19.3   704 – Lincoln Laboratory ETS, New Mexico MPS 54580
2002 05 18.27151 14 25 25.62 -07 05 13.8 19.5   704 – Lincoln Laboratory ETS, New Mexico MPS 54580
2002 05 18.28656 14 25 24.95 -07 05 12.3 19.0   704 – Lincoln Laboratory ETS, New Mexico MPS 54580
2002 05 29.37740 14 18 09.73 -07 01 43.4 20.3   608 – Haleakala-AMOS MPS 57114
2002 05 29.38824 14 18 09.36 -07 01 43.3 20.4   608 – Haleakala-AMOS MPS 57114
2002 05 29.39934 14 18 08.99 -07 01 43.9 20.5   608 – Haleakala-AMOS MPS 57114
2003 07 01.46392 21 24 10.06 -22 06 20.9 20.1   608 – Haleakala-AMOS MPS 82091
2003 07 01.47491 21 24 09.89 -22 06 24.6 20.0   608 – Haleakala-AMOS MPS 82091
2003 07 01.48558 21 24 09.67 -22 06 28.2 19.8   608 – Haleakala-AMOS MPS 82091
2003 07 11.44030 21 19 32.32 -22 59 31.6 20.1   608 – Haleakala-AMOS MPS 82251
2003 07 11.45080 21 19 31.94 -22 59 35.3 20.7   608 – Haleakala-AMOS MPS 82251
2003 07 11.46161 21 19 31.56 -22 59 38.4 20.4   608 – Haleakala-AMOS MPS 82251
2003 07 23.32783 21 11 27.40 -24 07 51.4 19.5   704 – Lincoln Laboratory ETS, New Mexico MPS 82345
2003 07 23.34850 21 11 26.34 -24 07 58.2 19.2   704 – Lincoln Laboratory ETS, New Mexico MPS 82345
2003 07 23.35871 21 11 25.80 -24 08 00.6 19.0   704 – Lincoln Laboratory ETS, New Mexico MPS 82345
2004 10 09.30866 03 28 35.15 +11 35 12.2 19.2   704 – Lincoln Laboratory ETS, New Mexico MPS 117249
2004 10 09.31993 03 28 34.79 +11 35 11.7 19.4   704 – Lincoln Laboratory ETS, New Mexico MPS 117249
2004 10 09.33116 03 28 34.47 +11 35 10.0 20.0   704 – Lincoln Laboratory ETS, New Mexico MPS 117249
2004 10 09.35398 03 28 33.79 +11 35 07.7 20.4   704 – Lincoln Laboratory ETS, New Mexico MPS 117249
2004 10 19.88419 03 22 27.02 +11 14 10.9 19.2 V A50 – Andrushivka Astronomical Observatory MPS 118164
2004 10 19.88566 03 22 26.94 +11 14 10.2 19.3 V A50 – Andrushivka Astronomical Observatory MPS 118164
2004 10 19.90216 03 22 26.18 +11 14 08.1 19.1 V A50 – Andrushivka Astronomical Observatory MPS 118164
